Погода в Матере

Италия     40°40′37″N   16°35′25″E
темп.,
°C
ветер,
м/с
пор.,
м/с
влажн.,
%
обл.,
%
осадки,
мм/ч
давл.,
гПа
погр.,
м
17 апреля, сб
сб1723:00+5ссз4792100 0.9 1015300
02:00+4ссз369434 0.9 1015140
05:00+3сз3793100 0.0 1013125
08:00+6сз368045 0.0 1012238
11:00+11сз445669 0.0 10111031
14:00+14ссз445199 0.0 10091671
17:00+11ссз676180 0.0 10101116
20:00+6сз3383100 0.0 101261
18 апреля, вс
вс1823:00+7зсз2580100 0.0 1013219
02:00+7зсз237697 0.0 101383
05:00+6сз2378100 0.2 101287
08:00+7зсз1185100 1.0 101478
11:00+8ююв348476 0.1 1015445
14:00+12ююв567571 0.7 1013920
17:00+11зюз24787 3.6 1013350
20:00+7ссв33954 4.1 101459
19 апреля, пн
пн1923:00+5с1194100 0.0 101410
02:00+6сз1191100 0.1 101313
05:00+6юз1284100 0.3 101321
08:00+7сз358145 0.3 1013231
11:00+11сз446620 0.6 10131121
14:00+13сз4456100 1.6 10121731
17:00+10зсз467799 1.4 1013741
20:00+6з239270 2.1 101596
20 апреля, вт
вт2023:00+5ссз11916 0.0 101611
02:00+4зюз11895 0.0 101611
05:00+4зюз11900 0.0 101612
08:00+7зюз12775 0.0 1016105
11:00+13юз335779 0.0 10161024
14:00+15юз345698 1.1 10151389
17:00+13ююв5573100 3.1 1015517
20:00+9вюв3489100 4.4 101666
21 апреля, ср
ср2123:00+8вюв1191100 0.0 101616
02:00+8з0192100 0.0 101611
05:00+7сз018893 0.0 101510
08:00+10сз117655 0.0 101594
11:00+15ю3458100 0.0 1016689
14:00+15вюв225976 0.2 1015807
17:00+14ююв457069 0.1 1014573
20:00+11юв369718 0.5 1015143